Change the Weather History Date:

Thursday, October 27, 2011

  Actual Average Record
Temperature  
Mean Temperature 38 °F -  
Max Temperature 46 °F 53 °F 78 °F (1955)
Min Temperature 30 °F 32 °F 2 °F (1936)
Degree Days  
Heating Degree Days 27    
Moisture  
Dew Point 32 °F    
Average Humidity 84    
Maximum Humidity 100    
Minimum Humidity 53    
Precipitation  
Precipitation 0.00 in - - ()
Sea Level Pressure  
Sea Level Pressure 30.03 in    
Wind  
Wind Speed 4 mph (WSW)    
Max Wind Speed 9 mph    
Max Gust Speed -    
Visibility 9 miles    
Events Fog    
Averages and records for this station are not official NWS values.
T = Trace of Precipitation, MM = Missing Value Source: NWS Daily Summary

Daily Weather History Graph

Daily Weather History Graph

Search for Another Location

Airport or City:

Trip Planner

Search our weather history database for the weather conditions in past years. The results will help you decide how hot, cold, wet, or windy it might be!

Date:

Astronomy

Oct. 27, 2011 Rise Set
Actual Time 7:58 AM CDT 6:15 PM CDT
Civil Twilight 7:26 AM CDT 6:47 PM CDT
Nautical Twilight 6:51 AM CDT 7:22 PM CDT
Astronomical Twilight 6:16 AM CDT 7:57 PM CDT
Moon 9:10 AM CDT (10/27) 6:36 PM CDT (10/27)
Length of Visible Light 11h 20m
Length of Day
10h 17m
New Moon, 1% of the Moon is Illuminated
Oct 27
New Moon
Nov 2
First Quarter
Nov 10
Full
Nov 18
Last Quarter
Nov 25
New

Hourly Weather History & Observations

Time (CDT) Temp. Windchill Dew Point Humidity Pressure Visibility Wind Dir Wind Speed Gust Speed Precip Events Conditions
12:13 AM 35.6 °F 30.7 °F 33.8 °F 93% 30.03 in 10.0 mi NW 5.8 mph - N/A   Scattered Clouds
12:34 AM 35.6 °F 30.7 °F 33.8 °F 93% 30.03 in 10.0 mi NW 5.8 mph - N/A   Scattered Clouds
1:13 AM 33.8 °F 27.7 °F 33.8 °F 100% 30.03 in 10.0 mi NW 6.9 mph - N/A   Scattered Clouds
1:34 AM 33.8 °F 27.0 °F 33.8 °F 100% 30.03 in 10.0 mi NW 8.1 mph - N/A   Clear
1:53 AM 33.8 °F 30.8 °F 32.0 °F 93% 30.03 in 10.0 mi NW 3.5 mph - N/A   Clear
2:13 AM 33.8 °F 28.6 °F 33.8 °F 100% 30.03 in 10.0 mi NNW 5.8 mph - N/A   Clear
2:34 AM 32.0 °F 27.5 °F 32.0 °F 100% 30.03 in 10.0 mi NNW 4.6 mph - N/A   Clear
2:53 AM 32.0 °F 25.6 °F 32.0 °F 100% 30.03 in 7.0 mi NW 6.9 mph - N/A   Clear
3:13 AM 32.0 °F 26.4 °F 32.0 °F 100% 30.03 in 10.0 mi NNW 5.8 mph - N/A   Clear
3:33 AM 33.8 °F 29.6 °F 33.8 °F 100% 30.02 in 10.0 mi NNW 4.6 mph - N/A   Clear
4:14 AM 32.0 °F 27.5 °F 32.0 °F 100% 30.02 in 10.0 mi NW 4.6 mph - N/A   Clear
4:33 AM 32.0 °F 27.5 °F 32.0 °F 100% 30.03 in 7.0 mi NW 4.6 mph - N/A   Clear
4:53 AM 32.0 °F 27.5 °F 32.0 °F 100% 30.03 in 5.0 mi NW 4.6 mph - N/A   Clear
5:33 AM 32.0 °F 28.7 °F 32.0 °F 100% 30.04 in 10.0 mi WNW 3.5 mph - N/A   Clear
5:53 AM 32.0 °F 28.7 °F 32.0 °F 100% 30.04 in 7.0 mi NW 3.5 mph - N/A   Clear
6:14 AM 32.0 °F 28.7 °F 32.0 °F 100% 30.04 in 7.0 mi WNW 3.5 mph - N/A   Clear
6:33 AM 32.0 °F - 32.0 °F 100% 30.05 in 7.0 mi Calm Calm - N/A   Clear
6:53 AM 32.0 °F - 32.0 °F 100% 30.05 in 7.0 mi Calm Calm - N/A   Clear
7:13 AM 32.0 °F - 32.0 °F 100% 30.04 in 7.0 mi Calm Calm - N/A   Clear
7:33 AM 32.0 °F - 32.0 °F 100% 30.04 in 5.0 mi Calm Calm - N/A   Clear
7:54 AM 32.0 °F - 32.0 °F 100% 30.04 in 2.5 mi Calm Calm - N/A   Clear
8:13 AM 30.2 °F - 30.2 °F 100% 30.04 in 1.8 mi Calm Calm - N/A   Mist
8:33 AM 32.0 °F - 32.0 °F 100% 30.04 in 0.2 mi Calm Calm - N/A Fog Light Freezing Fog
8:54 AM 32.0 °F - 32.0 °F 100% 30.04 in 0.2 mi Calm Calm - N/A Fog Light Freezing Fog
9:13 AM 32.0 °F - 32.0 °F 100% 30.05 in 0.2 mi Calm Calm - N/A Fog Fog
9:33 AM 32.0 °F - 32.0 °F 100% 30.05 in 0.5 mi Calm Calm - N/A Fog Fog
9:54 AM 33.8 °F 30.8 °F 33.8 °F 100% 30.05 in 10.0 mi WSW 3.5 mph - N/A   Clear
10:13 AM 35.6 °F 32.8 °F 35.6 °F 100% 30.05 in 10.0 mi West 3.5 mph - N/A   Clear
10:33 AM 35.6 °F 32.8 °F 35.6 °F 100% 30.05 in 10.0 mi SW 3.5 mph - N/A   Scattered Clouds
10:53 AM 37.4 °F 33.8 °F 35.6 °F 93% 30.04 in 10.0 mi SSW 4.6 mph - N/A   Scattered Clouds
11:13 AM 37.4 °F - 35.6 °F 93% 30.05 in 10.0 mi Calm Calm - N/A   Mostly Cloudy
11:33 AM 37.4 °F 32.8 °F 35.6 °F 93% 30.05 in 10.0 mi SW 5.8 mph - N/A   Scattered Clouds
11:53 AM 39.2 °F 35.9 °F 35.6 °F 87% 30.05 in 10.0 mi SW 4.6 mph - N/A   Scattered Clouds
12:14 PM 41.0 °F 38.0 °F 35.6 °F 81% 30.05 in 10.0 mi SSW 4.6 mph - N/A   Scattered Clouds
12:33 PM 41.0 °F 38.0 °F 35.6 °F 81% 30.05 in 10.0 mi WSW 4.6 mph - N/A   Scattered Clouds
12:53 PM 42.8 °F 40.1 °F 35.6 °F 76% 30.04 in 10.0 mi SW 4.6 mph - N/A   Clear
1:13 PM 42.8 °F 40.1 °F 33.8 °F 70% 30.04 in 10.0 mi SW 4.6 mph - N/A   Clear
1:33 PM 42.8 °F 41.1 °F 33.8 °F 70% 30.03 in 10.0 mi SW 3.5 mph - N/A   Clear
1:53 PM 42.8 °F 40.1 °F 33.8 °F 70% 30.02 in 10.0 mi West 4.6 mph - N/A   Clear
2:13 PM 44.6 °F 42.2 °F 33.8 °F 66% 30.02 in 10.0 mi SW 4.6 mph - N/A   Scattered Clouds
2:33 PM 44.6 °F 42.2 °F 33.8 °F 66% 30.02 in 10.0 mi WSW 4.6 mph - N/A   Scattered Clouds
2:53 PM 44.6 °F 40.7 °F 32.0 °F 61% 30.01 in 10.0 mi WSW 6.9 mph - N/A   Mostly Cloudy
3:14 PM 44.6 °F 41.4 °F 32.0 °F 61% 30.01 in 10.0 mi WSW 5.8 mph - N/A   Scattered Clouds
3:33 PM 44.6 °F 41.4 °F 32.0 °F 61% 30.01 in 10.0 mi SW 5.8 mph - N/A   Scattered Clouds
3:53 PM 46.4 °F 41.9 °F 32.0 °F 57% 30.01 in 10.0 mi WSW 9.2 mph - N/A   Scattered Clouds
4:13 PM 44.6 °F 42.2 °F 32.0 °F 61% 30.01 in 10.0 mi SSW 4.6 mph - N/A   Scattered Clouds
4:33 PM 46.4 °F 42.9 °F 30.2 °F 53% 30.01 in 10.0 mi WSW 6.9 mph - N/A   Scattered Clouds
4:53 PM 44.6 °F 42.2 °F 32.0 °F 61% 30.01 in 10.0 mi SW 4.6 mph - N/A   Scattered Clouds
5:14 PM 44.6 °F 43.1 °F 30.2 °F 57% 30.00 in 10.0 mi SW 3.5 mph - N/A   Scattered Clouds
5:33 PM 44.6 °F 42.2 °F 30.2 °F 57% 30.00 in 10.0 mi SW 4.6 mph - N/A   Scattered Clouds
5:53 PM 44.6 °F 40.7 °F 30.2 °F 57% 30.00 in 10.0 mi SW 6.9 mph - N/A   Scattered Clouds
6:13 PM 42.8 °F 40.1 °F 30.2 °F 61% 30.01 in 10.0 mi SW 4.6 mph - N/A   Clear
6:33 PM 42.8 °F 40.1 °F 30.2 °F 61% 30.01 in 10.0 mi SW 4.6 mph - N/A   Clear
6:53 PM 41.0 °F 38.0 °F 30.2 °F 65% 30.01 in 10.0 mi South 4.6 mph - N/A   Clear
7:14 PM 39.2 °F 35.9 °F 32.0 °F 75% 30.02 in 10.0 mi South 4.6 mph - N/A   Clear
7:33 PM 39.2 °F 35.9 °F 30.2 °F 70% 30.02 in 10.0 mi South 4.6 mph - N/A   Clear
8:13 PM 37.4 °F 33.8 °F 30.2 °F 75% 30.01 in 10.0 mi SSE 4.6 mph - N/A   Clear
8:33 PM 37.4 °F 32.8 °F 30.2 °F 75% 30.01 in 10.0 mi SSE 5.8 mph - N/A   Clear
8:53 PM 35.6 °F 31.7 °F 30.2 °F 81% 30.01 in 10.0 mi South 4.6 mph - N/A   Clear
9:13 PM 37.4 °F 34.9 °F 30.2 °F 75% 30.01 in 10.0 mi South 3.5 mph - N/A   Clear
9:33 PM 35.6 °F 31.7 °F 30.2 °F 81% 30.00 in 10.0 mi South 4.6 mph - N/A   Clear
9:53 PM 37.4 °F 33.8 °F 32.0 °F 81% 30.00 in 10.0 mi SSE 4.6 mph - N/A   Clear
10:13 PM 35.6 °F 29.9 °F 32.0 °F 87% 30.00 in 10.0 mi SSE 6.9 mph - N/A   Scattered Clouds
10:33 PM 37.4 °F 32.1 °F 32.0 °F 81% 29.99 in 10.0 mi SSE 6.9 mph - N/A   Scattered Clouds
10:53 PM 37.4 °F 32.8 °F 32.0 °F 81% 29.98 in 10.0 mi South 5.8 mph - N/A   Mostly Cloudy
11:13 PM 37.4 °F 32.1 °F 32.0 °F 81% 29.98 in 10.0 mi SSE 6.9 mph - N/A   Scattered Clouds
11:33 PM 39.2 °F 34.2 °F 32.0 °F 75% 29.98 in 10.0 mi South 6.9 mph - N/A   Clear
11:54 PM 39.2 °F 35.0 °F 32.0 °F 75% 29.97 in 10.0 mi South 5.8 mph - N/A   Scattered Clouds